Weather History for Glendive, MT

Change the Weather History Date:

Wednesday, November 7, 2012

  Actual Average Record
Temperature  
Mean Temperature 48 °F -  
Max Temperature 64 °F 41 °F 73 °F (1999)
Min Temperature 32 °F 21 °F 1 °F (2003)
Degree Days  
Heating Degree Days 17    
Moisture  
Dew Point 32 °F    
Average Humidity 59    
Maximum Humidity 81    
Minimum Humidity 37    
Precipitation  
Precipitation 0.02 in - - ()
Sea Level Pressure  
Sea Level Pressure 29.77 in    
Wind  
Wind Speed 9 mph (SW)    
Max Wind Speed 24 mph    
Max Gust Speed 32 mph    
Visibility 10 miles    
Events      
Averages and records for this station are not official NWS values.
T = Trace of Precipitation, MM = Missing Value Source: NWS Daily Summary

Daily Weather History Graph

Daily Weather History Graph

Search for Another Location

Airport:

Trip Planner

Search our weather history database for the weather conditions in past years. The results will help you decide how hot, cold, wet, or windy it might be!

Date:

Astronomy

Nov. 07, 2012 Rise Set
Actual Time 6:51 AM MST 4:33 PM MST
Civil Twilight 6:19 AM MST 5:05 PM MST
Nautical Twilight 5:42 AM MST 5:42 PM MST
Astronomical Twilight 5:07 AM MST 6:17 PM MST
Moon No Moon Rise 1:07 PM MST (11/7)
Length of Visible Light 10h 46m
Length of Day
9h 41m
Last Quarter, 42% of the Moon is Illuminated
Nov 7
Last Quarter
Nov 13
New
Nov 20
First Quarter
Nov 28
Full
Dec 6
Last Quarter

Hourly Weather History & Observations

Time (MST) Temp. Windchill Dew Point Humidity Pressure Visibility Wind Dir Wind Speed Gust Speed Precip Events Conditions
12:15 AM 33.8 °F 30.8 °F 24.8 °F 70% 29.95 in 10.0 mi East 3.5 mph - N/A   Clear
12:35 AM 32.0 °F 27.5 °F 24.8 °F 75% 29.94 in 10.0 mi ENE 4.6 mph - N/A   Partly Cloudy
12:55 AM 33.8 °F 30.8 °F 24.8 °F 70% 29.94 in 10.0 mi NE 3.5 mph - N/A   Mostly Cloudy
1:15 AM 33.8 °F 29.6 °F 24.8 °F 70% 29.93 in 10.0 mi NE 4.6 mph - N/A   Partly Cloudy
1:35 AM 33.8 °F 28.6 °F 24.8 °F 70% 29.90 in 10.0 mi East 5.8 mph - N/A   Clear
1:55 AM 33.8 °F 28.6 °F 24.8 °F 70% 29.89 in 10.0 mi SE 5.8 mph - N/A   Clear
2:15 AM 33.8 °F - 24.8 °F 70% 29.88 in 10.0 mi Calm Calm - N/A   Clear
2:35 AM 35.6 °F 30.7 °F 24.8 °F 65% 29.87 in 10.0 mi South 5.8 mph - N/A   Clear
2:55 AM 33.8 °F 29.6 °F 23.0 °F 65% 29.86 in 10.0 mi South 4.6 mph - N/A   Clear
3:15 AM 33.8 °F 27.7 °F 24.8 °F 70% 29.85 in 10.0 mi SSW 6.9 mph - N/A   Clear
3:35 AM 35.6 °F 28.6 °F 26.6 °F 70% 29.84 in 10.0 mi South 9.2 mph - N/A   Clear
3:55 AM 35.6 °F 29.9 °F 26.6 °F 70% 29.83 in 10.0 mi South 6.9 mph - N/A   Clear
4:15 AM 35.6 °F 29.9 °F 26.6 °F 70% 29.82 in 10.0 mi South 6.9 mph - N/A   Clear
4:35 AM 35.6 °F 29.2 °F 26.6 °F 70% 29.81 in 10.0 mi South 8.1 mph - N/A   Clear
4:55 AM 35.6 °F 29.2 °F 26.6 °F 70% 29.81 in 10.0 mi South 8.1 mph - N/A   Clear
5:15 AM 35.6 °F 28.6 °F 26.6 °F 70% 29.80 in 10.0 mi SSW 9.2 mph - N/A   Clear
5:35 AM 37.4 °F 30.8 °F 26.6 °F 65% 29.80 in 10.0 mi SSW 9.2 mph - N/A   Clear
5:55 AM 35.6 °F 29.2 °F 26.6 °F 70% 29.79 in 10.0 mi SSW 8.1 mph - N/A   Clear
6:15 AM 35.6 °F 29.2 °F 28.4 °F 75% 29.79 in 10.0 mi SSW 8.1 mph - N/A   Clear
6:35 AM 35.6 °F 29.9 °F 26.6 °F 70% 29.78 in 10.0 mi SW 6.9 mph - N/A   Clear
7:15 AM 33.8 °F 27.0 °F 26.6 °F 75% 29.78 in 10.0 mi SSW 8.1 mph - N/A   Clear
7:35 AM 35.6 °F 28.6 °F 28.4 °F 75% 29.77 in 10.0 mi SSW 9.2 mph - N/A   Clear
7:55 AM 39.2 °F 33.6 °F 30.2 °F 70% 29.77 in 10.0 mi SSW 8.1 mph - N/A   Clear
8:15 AM 41.0 °F 34.3 °F 30.2 °F 65% 29.76 in 10.0 mi SW 11.5 mph - N/A   Clear
8:35 AM 41.0 °F 34.7 °F 30.2 °F 65% 29.76 in 10.0 mi SSW 10.4 mph - N/A   Clear
8:55 AM 44.6 °F 38.8 °F 32.0 °F 61% 29.75 in 10.0 mi SSW 11.5 mph - N/A   Clear
9:15 AM 44.6 °F 37.8 °F 32.0 °F 61% 29.75 in 10.0 mi SSW 15.0 mph - N/A   Clear
9:35 AM 46.4 °F 39.0 °F 32.0 °F 57% 29.74 in 10.0 mi SSW 19.6 mph - N/A   Clear
9:55 AM 46.4 °F 39.0 °F 33.8 °F 62% 29.73 in 10.0 mi SSW 19.6 mph - N/A   Clear
10:15 AM 48.2 °F - 33.8 °F 58% 29.73 in 10.0 mi SSW 17.3 mph - N/A   Clear
10:35 AM 50.0 °F - 33.8 °F 54% 29.72 in 10.0 mi SSW 16.1 mph - N/A   Clear
10:55 AM 53.6 °F - 35.6 °F 51% 29.71 in 10.0 mi SSW 17.3 mph - N/A   Clear
11:15 AM 55.4 °F - 35.6 °F 47% 29.70 in 10.0 mi South 13.8 mph - N/A   Clear
11:35 AM 59.0 °F - 35.6 °F 42% 29.69 in 10.0 mi South 13.8 mph - N/A   Clear
11:55 AM 60.8 °F - 37.4 °F 42% 29.68 in 10.0 mi South 13.8 mph - N/A   Clear
12:15 PM 62.6 °F - 35.6 °F 37% 29.67 in 10.0 mi South 11.5 mph - N/A   Clear
12:35 PM 59.0 °F - 35.6 °F 42% 29.67 in 10.0 mi SSE 10.4 mph - N/A   Clear
1:15 PM 59.0 °F - 35.6 °F 42% 29.66 in 10.0 mi South 10.4 mph - N/A   Clear
1:35 PM 60.8 °F - 35.6 °F 39% 29.66 in 10.0 mi South 12.7 mph - N/A   Clear
1:55 PM 60.8 °F - 37.4 °F 42% 29.66 in 10.0 mi SSW 11.5 mph - N/A   Clear
2:15 PM 62.6 °F - 37.4 °F 39% 29.65 in 10.0 mi SSW 9.2 mph - N/A   Clear
2:35 PM 64.4 °F - 37.4 °F 37% 29.66 in 10.0 mi SW 10.4 mph - N/A   Clear
2:55 PM 62.6 °F - 37.4 °F 39% 29.66 in 10.0 mi SW 5.8 mph - N/A   Clear
3:15 PM 62.6 °F - 37.4 °F 39% 29.65 in 10.0 mi SSW 4.6 mph - N/A   Clear
3:35 PM 60.8 °F - 37.4 °F 42% 29.66 in 10.0 mi East 3.5 mph - N/A   Clear
3:55 PM 60.8 °F - 37.4 °F 42% 29.66 in 10.0 mi ESE 3.5 mph - N/A   Clear
4:15 PM 60.8 °F - 35.6 °F 39% 29.66 in 10.0 mi SSW 4.6 mph - N/A   Clear
4:35 PM 57.2 °F - 35.6 °F 44% 29.66 in 10.0 mi WSW 4.6 mph - N/A   Clear
4:55 PM 55.4 °F - 35.6 °F 47% 29.66 in 10.0 mi Calm Calm - N/A   Clear
5:15 PM 55.4 °F - 35.6 °F 47% 29.66 in 10.0 mi NW 8.1 mph - N/A   Clear
5:35 PM 55.4 °F - 37.4 °F 51% 29.69 in 10.0 mi NW 13.8 mph - N/A   Clear
5:55 PM 55.4 °F - 35.6 °F 47% 29.70 in 10.0 mi NNW 18.4 mph - N/A   Clear
6:15 PM 53.6 °F - 37.4 °F 54% 29.72 in 10.0 mi NNW 20.7 mph - N/A   Clear
6:35 PM 51.8 °F - 37.4 °F 58% 29.73 in 10.0 mi NW 18.4 mph 25.3 mph N/A   Clear
6:55 PM 51.8 °F - 37.4 °F 58% 29.75 in 10.0 mi NW 18.4 mph 25.3 mph N/A   Clear
7:15 PM 51.8 °F - 35.6 °F 54% 29.76 in 10.0 mi NW 18.4 mph 25.3 mph N/A   Clear
7:35 PM 51.8 °F - 35.6 °F 54% 29.77 in 10.0 mi NW 19.6 mph 28.8 mph N/A   Clear
7:55 PM 51.8 °F - 35.6 °F 54% 29.75 in 10.0 mi NW 19.6 mph 24.2 mph N/A   Partly Cloudy
8:15 PM 50.0 °F - 35.6 °F 58% 29.76 in 10.0 mi NNW 15.0 mph 20.7 mph N/A   Mostly Cloudy
8:35 PM 50.0 °F - 35.6 °F 58% 29.77 in 10.0 mi NW 12.7 mph - N/A   Overcast
8:55 PM 50.0 °F - 35.6 °F 58% 29.79 in 10.0 mi WNW 10.4 mph - N/A   Mostly Cloudy
9:15 PM 48.2 °F - 35.6 °F 62% 29.82 in 10.0 mi WNW 19.6 mph - N/A   Mostly Cloudy
9:35 PM 48.2 °F - 35.6 °F 62% 29.82 in 10.0 mi WNW 24.2 mph 32.2 mph N/A   Mostly Cloudy
9:56 PM 46.4 °F 39.2 °F 35.6 °F 66% 29.81 in 10.0 mi NW 18.4 mph 27.6 mph N/A   Mostly Cloudy
10:15 PM 46.4 °F 38.5 °F 33.8 °F 62% 29.82 in 10.0 mi NW 21.9 mph 32.2 mph N/A   Overcast
10:35 PM 44.6 °F 37.4 °F 37.4 °F 76% 29.81 in 10.0 mi NW 16.1 mph 21.9 mph N/A   Overcast
10:55 PM 44.6 °F 38.1 °F 35.6 °F 71% 29.84 in 10.0 mi NW 13.8 mph - N/A   Overcast
11:15 PM 44.6 °F 37.2 °F 37.4 °F 76% 29.88 in 10.0 mi NW 17.3 mph 26.5 mph N/A   Overcast
11:35 PM 42.8 °F 35.8 °F 37.4 °F 81% 29.87 in 10.0 mi NNW 13.8 mph 19.6 mph N/A   Mostly Cloudy
11:55 PM 42.8 °F 40.1 °F 37.4 °F 81% 29.90 in 10.0 mi NW 4.6 mph - 0.02 in   Mostly Cloudy